[[{"header":{"parameterUnit":"m.s-1","parameterCategory":1,"la1":30.2991,"la2":30.254,"lo1":-89.0895,"lo2":-89.0444,"dy":0.0017,"dx":0.0017,"nx":28,"ny":28,"refTime":"2023-09-10T09:00:00:Z","depth":0,"parameterNumber":2,"parameterNumberName":"U-component_of_WINDS"},"data":[0,0,0,0,0,0,0,0,0,0,0,0,0,0,0,0,0,0,0,0,0,0,0,0,0,0,0,0,0,0,0,0,0,0,0,0,0,0,0,0,0,0,0,0,0,0,0,0,0,0,0,0,0,0,0,0,0,0,-0.3907,-0.3907,0,-0.3908,-0.3908,-0.3908,-0.3836,-0.3834,-0.3832,-0.383,-0.3834,-0.3836,-0.3838,0,0,0,0,0,0,0,0,0,0,0,0,0,-0.3846,-0.3847,-0.3907,-0.3907,-0.3907,-0.3908,-0.3908,-0.3908,-0.3836,-0.3834,-0.3832,-0.3829,-0.3834,-0.3836,-0.3838,0,0,0,0,0,0,0,0,0,0,0,0,0,-0.3862,-0.3848,-0.3907,-0.3871,-0.3868,-0.3908,-0.3908,-0.3908,-0.3837,-0.3834,-0.3831,-0.3828,-0.3833,-0.3836,-0.3839,-0.3913,0,0,-0.3847,-0.3848,0,0,0,0,0,0,0,0,-0.3861,-0.3865,-0.3877,-0.3874,-0.387,-0.3869,-0.3887,-0.391,-0.3837,-0.3849,-0.383,-0.3827,-0.3848,-0.385,-0.3856,-0.3914,-0.3914,-0.3847,-0.3849,-0.385,-0.3851,0,0,0,0,0,0,0,-0.386,-0.3864,-0.3907,-0.3877,-0.3873,-0.3856,-0.3855,-0.3891,-0.3865,-0.3848,-0.3842,-0.3843,-0.3846,-0.3854,-0.3856,-0.3914,-0.3847,-0.385,-0.3852,-0.3853,-0.4032,-0.4035,0,0,0,0,0,0,-0.3864,-0.3864,-0.3907,-0.3907,-0.3859,-0.3859,-0.3858,-0.3872,-0.3864,-0.386,-0.3846,-0.384,-0.385,-0.3853,-0.3856,-0.3943,-0.385,-0.3853,-0.3855,-0.4029,-0.4033,-0.4036,0,0,0,0,0,0,-0.3863,-0.3868,-0.3907,-0.3884,-0.3888,-0.3863,-0.388,-0.3874,-0.3881,-0.3863,-0.3858,-0.3858,-0.3848,-0.3852,-0.3899,-0.3942,-0.3854,-0.3857,-0.4025,-0.403,-0.4034,-0.4119,0,0,0,0,0,0,-0.3861,-0.3868,-0.3896,-0.3885,-0.3889,-0.3951,-0.3882,-0.3876,-0.3886,-0.3878,-0.3873,-0.387,-0.3846,-0.3895,-0.3902,-0.3945,-0.3859,-0.4021,-0.4027,-0.4033,-0.4112,-0.4126,-0.4137,0,0,0,0,0,-0.3859,-0.3921,-0.3898,-0.3904,-0.3923,-0.3953,-0.3956,-0.3927,-0.389,-0.3918,-0.3906,-0.387,-0.3936,-0.3901,-0.3908,-0.3952,-0.4019,-0.4026,-0.4032,-0.4107,-0.4123,-0.4137,0,0,0,0,0,0,-0.3939,-0.3919,-0.3893,-0.3953,-0.3955,-0.3941,-0.3976,-0.3945,-0.3959,-0.3952,-0.3915,-0.3915,-0.3968,-0.3964,-0.3926,-0.4024,-0.3971,-0.398,-0.4025,-0.404,-0.4053,-0.4054,-0.3861,0,0,0,0,0,-0.3964,-0.3989,-0.3969,-0.4024,-0.4026,-0.4001,-0.4013,-0.399,-0.3991,-0.3992,-0.3984,-0.3987,-0.4008,-0.4024,-0.4042,-0.411,-0.4108,-0.4144,-0.4156,-0.4167,-0.4176,-0.4211,-0.4227,-0.4059,-0.4059,-0.4058,0,0,-0.4015,-0.4007,-0.4025,-0.404,-0.4039,-0.4067,-0.4003,-0.4035,-0.4055,-0.3998,-0.4042,-0.4035,-0.4037,-0.4095,-0.412,-0.4093,-0.4221,-0.4175,-0.4184,-0.4187,-0.422,-0.4236,-0.425,-0.4063,-0.4062,-0.4062,0,0,-0.4123,-0.4118,-0.4163,-0.4163,-0.4162,-0.4144,-0.4155,-0.4145,-0.4138,-0.4181,-0.4139,-0.4162,-0.42,-0.4203,-0.421,-0.4316,-0.4284,-0.4323,-0.439,-0.4425,-0.4439,-0.445,-0.449,-0.4504,-0.4331,-0.4331,-0.4331,0,-0.4187,-0.4226,-0.4191,-0.4225,-0.4233,-0.418,-0.4226,-0.4228,-0.4234,-0.4241,-0.421,-0.4255,-0.4253,-0.4311,-0.4336,-0.4343,-0.4355,-0.4325,-0.4439,-0.4451,-0.4461,-0.4498,-0.4513,-0.4336,-0.4335,-0.4335,-0.4334,0,-0.4306,-0.4334,-0.437,-0.4375,-0.4387,-0.4427,-0.4398,-0.4415,-0.439,-0.4376,-0.442,-0.4415,-0.4431,-0.4443,-0.4419,-0.4498,-0.4481,-0.4445,-0.4392,-0.4483,-0.4517,-0.4531,-0.4343,-0.4341,-0.434,-0.4339,0,0,-0.4468,-0.445,-0.4465,-0.4466,-0.446,-0.4481,-0.4518,-0.4533,-0.4548,-0.4553,-0.4584,-0.4616,-0.4582,-0.459,-0.4566,-0.4597,-0.4682,-0.4557,-0.4556,-0.4582,-0.4769,-0.4798,-0.4815,-0.466,-0.4662,-0.4664,-0.477,0,-0.4573,-0.4636,-0.4604,-0.4671,-0.4696,-0.4645,-0.4677,-0.4678,-0.4665,-0.4685,-0.467,-0.4694,-0.4647,-0.4651,-0.4679,-0.4666,-0.472,-0.4658,-0.469,-0.4692,-0.4694,-0.4833,-0.4864,-0.4964,-0.4783,-0.4785,-0.4787,0,-0.4706,-0.4715,-0.4784,-0.4772,-0.4781,-0.4811,-0.4822,-0.4841,-0.484,-0.4828,-0.4835,-0.4804,-0.484,-0.4785,-0.4835,-0.4793,-0.4804,-0.48,-0.4803,-0.4807,-0.4747,-0.4843,-0.4995,-0.5011,-0.4807,-0.4806,-0.4804,0,-0.4819,-0.4848,-0.4893,-0.4896,-0.4883,-0.4905,-0.49,-0.4896,-0.4906,-0.4915,-0.4922,-0.4936,-0.4944,-0.4956,-0.4929,-0.4891,-0.4983,-0.4925,-0.4976,-0.4977,-0.5,-0.5,-0.5158,-0.5003,-0.5003,-0.5003,-0.5002,0,-0.4942,-0.4987,-0.4944,-0.4972,-0.5021,-0.4983,-0.5032,-0.5022,-0.5018,-0.5044,-0.5,-0.5025,-0.4987,-0.5009,-0.4987,-0.5033,-0.5036,-0.5029,-0.5023,-0.5034,-0.5036,-0.5043,-0.5036,-0.5007,-0.5006,-0.5005,-0.5004,0,-0.5079,-0.5051,-0.5097,-0.5079,-0.5076,-0.5113,-0.5098,-0.5124,-0.5106,-0.5139,-0.5145,-0.5119,-0.5142,-0.5115,-0.5136,-0.5122,-0.5184,-0.5166,-0.5184,-0.518,-0.5233,-0.5229,-0.5404,-0.5426,-0.5255,-0.5256,-0.5258,0,-0.516,-0.5193,-0.5179,-0.5192,-0.519,-0.5212,-0.5222,-0.5185,-0.5198,-0.5198,-0.5224,-0.5242,-0.5256,-0.5295,-0.5278,-0.5294,-0.5278,-0.5338,-0.5281,-0.5291,-0.5282,-0.5281,-0.5285,-0.5351,-0.5353,-0.5355,-0.5356,0,-0.5309,-0.5293,-0.5309,-0.5319,-0.5332,-0.5339,-0.5343,-0.5357,-0.5318,-0.5335,-0.5357,-0.5367,-0.5387,-0.5407,-0.5418,-0.5414,-0.538,-0.5374,-0.5387,-0.54,-0.541,-0.5407,-0.5219,-0.5371,-0.537,-0.5368,-0.5368,-0.5367,-0.5422,-0.5449,-0.5442,-0.5461,-0.5459,-0.5463,-0.5486,-0.5471,-0.5488,-0.5501,-0.5478,-0.5507,-0.5503,-0.5514,-0.5513,-0.5535,-0.551,-0.5528,-0.5533,-0.5539,-0.5548,-0.5404,-0.5537,-0.5536,-0.5536,-0.5536,-0.5535,0,-0.557,-0.5562,-0.5579,-0.5585,-0.56,-0.5563,-0.5565,-0.558,-0.5605,-0.5604,-0.5617,-0.5643,-0.5661,-0.5645,-0.566,-0.5681,-0.5666,-0.5686,-0.5686,-0.5686,-0.5569,-0.5557,-0.5698,-0.5698,-0.5698,-0.5698,-0.5698,-0.5698,-0.5649,-0.5692,-0.5675,-0.5718,-0.571,-0.5736,-0.5741,-0.5744,-0.5743,-0.5773,-0.5787,-0.5776,-0.5769,-0.5783,-0.5798,-0.5792,-0.5801,-0.5828,-0.5818,-0.571,-0.5694,-0.5679,-0.5668,-0.583,-0.583,-0.5933,-0.5934,-0.5935]},{"header":{"parameterUnit":"m.s-1","parameterCategory":1,"la1":30.2991,"la2":30.254,"lo1":-89.0895,"lo2":-89.0444,"dy":0.0017,"dx":0.0017,"nx":28,"ny":28,"refTime":"2023-09-10T09:00:00:Z","depth":0,"parameterNumber":3,"parameterNumberName":"V-component_of_WINDS"},"data":[0,0,0,0,0,0,0,0,0,0,0,0,0,0,0,0,0,0,0,0,0,0,0,0,0,0,0,0,0,0,0,0,0,0,0,0,0,0,0,0,0,0,0,0,0,0,0,0,0,0,0,0,0,0,0,0,0,0,-4.4815,-4.4816,0,-4.4903,-4.4904,-4.4905,-4.4854,-4.4851,-4.4849,-4.4846,-4.4931,-4.4936,-4.494,0,0,0,0,0,0,0,0,0,0,0,0,0,-4.4596,-4.4601,-4.4815,-4.4816,-4.4817,-4.4903,-4.4904,-4.4906,-4.4854,-4.4851,-4.4848,-4.4845,-4.493,-4.4935,-4.4941,0,0,0,0,0,0,0,0,0,0,0,0,0,-4.4689,-4.4602,-4.4815,-4.4802,-4.4802,-4.4903,-4.4904,-4.4906,-4.4855,-4.4851,-4.4847,-4.4844,-4.4928,-4.4935,-4.4941,-4.5059,0,0,-4.4962,-4.4965,0,0,0,0,0,0,0,0,-4.4683,-4.4697,-4.4803,-4.4803,-4.4803,-4.4864,-4.4858,-4.4957,-4.4856,-4.4834,-4.4846,-4.4842,-4.4911,-4.4919,-4.4944,-4.5063,-4.5066,-4.4963,-4.4967,-4.497,-4.4972,0,0,0,0,0,0,0,-4.4677,-4.4693,-4.485,-4.4804,-4.4804,-4.479,-4.4799,-4.4877,-4.4893,-4.4836,-4.4832,-4.4844,-4.4911,-4.4938,-4.4946,-4.5067,-4.4963,-4.4969,-4.4973,-4.4976,-4.5285,-4.5289,0,0,0,0,0,0,-4.4672,-4.4688,-4.4847,-4.4852,-4.4733,-4.4797,-4.4807,-4.4848,-4.4892,-4.4895,-4.4847,-4.4841,-4.4928,-4.4938,-4.4948,-4.5088,-4.497,-4.4977,-4.4981,-4.5281,-4.5286,-4.5291,0,0,0,0,0,0,-4.4668,-4.4687,-4.4843,-4.4769,-4.4788,-4.4805,-4.4851,-4.4852,-4.4878,-4.49,-4.4902,-4.4872,-4.4925,-4.4939,-4.5032,-4.509,-4.498,-4.4986,-4.5276,-4.5283,-4.5288,-4.5368,0,0,0,0,0,0,-4.4662,-4.4686,-4.4732,-4.4771,-4.4792,-4.4927,-4.4855,-4.4856,-4.4891,-4.4884,-4.4924,-4.4927,-4.4923,-4.5022,-4.5039,-4.5097,-4.4991,-4.5271,-4.5279,-4.5286,-4.536,-4.5376,-4.5389,0,0,0,0,0,-4.4654,-4.475,-4.4734,-4.4754,-4.485,-4.4931,-4.4943,-4.4938,-4.4896,-4.4941,-4.4955,-4.4926,-4.5081,-4.5032,-4.505,-4.5112,-4.5267,-4.5277,-4.5286,-4.5353,-4.5373,-4.5389,0,0,0,0,0,0,-4.4715,-4.4755,-4.4738,-4.4849,-4.4887,-4.4922,-4.4979,-4.4959,-4.5008,-4.4999,-4.499,-4.4999,-4.5096,-4.5113,-4.5058,-4.5227,-4.5167,-4.5181,-4.5212,-4.5231,-4.5245,-4.5239,-4.4997,0,0,0,0,0,-4.4742,-4.4806,-4.4836,-4.4931,-4.4951,-4.4962,-4.4997,-4.499,-4.5028,-4.5044,-4.5064,-4.5101,-4.5158,-4.5195,-4.5249,-4.5362,-4.5369,-4.5414,-4.5429,-4.5441,-4.5452,-4.5512,-4.5532,-4.5321,-4.5321,-4.5321,0,0,-4.4797,-4.4827,-4.4867,-4.4944,-4.4973,-4.5037,-4.4976,-4.5047,-4.5094,-4.5054,-4.5143,-4.516,-4.52,-4.5303,-4.535,-4.532,-4.5512,-4.5452,-4.5462,-4.5467,-4.5524,-4.5543,-4.5561,-4.5327,-4.5326,-4.5325,0,0,-4.4931,-4.496,-4.5043,-4.5073,-4.5118,-4.5124,-4.5144,-4.5182,-4.5192,-4.5282,-4.5253,-4.5308,-4.5407,-4.5436,-4.5464,-4.5609,-4.5583,-4.5627,-4.5703,-4.5762,-4.5779,-4.5793,-4.5844,-4.5862,-4.5638,-4.5638,-4.5639,0,-4.4993,-4.5091,-4.5087,-4.516,-4.5194,-4.5163,-4.5245,-4.5274,-4.5333,-4.5356,-4.5323,-4.5446,-4.5471,-4.5581,-4.5616,-4.564,-4.5661,-4.5622,-4.5777,-4.5792,-4.5805,-4.5853,-4.5873,-4.5643,-4.5643,-4.5642,-4.5642,0,-4.5165,-4.5234,-4.5294,-4.5354,-4.5395,-4.5472,-4.5478,-4.5519,-4.5509,-4.5519,-4.561,-4.5639,-4.5698,-4.5723,-4.5713,-4.5832,-4.5812,-4.5778,-4.5718,-4.583,-4.5875,-4.5894,-4.565,-4.5649,-4.5647,-4.5646,0,0,-4.5339,-4.5396,-4.5419,-4.5445,-4.5492,-4.5544,-4.5619,-4.5678,-4.5714,-4.5756,-4.5817,-4.5902,-4.5871,-4.5903,-4.5896,-4.5948,-4.6059,-4.5907,-4.5908,-4.5934,-4.619,-4.6214,-4.6236,-4.6043,-4.6047,-4.6049,-4.6186,0,-4.5475,-4.5609,-4.5607,-4.573,-4.5792,-4.5763,-4.5828,-4.5863,-4.5874,-4.5927,-4.5938,-4.5998,-4.5953,-4.5972,-4.6022,-4.6035,-4.611,-4.6026,-4.6098,-4.6101,-4.6089,-4.626,-4.6286,-4.6413,-4.6204,-4.6207,-4.6209,0,-4.5651,-4.5701,-4.5831,-4.5868,-4.5894,-4.5953,-4.6007,-4.6059,-4.6097,-4.6101,-4.6137,-4.6122,-4.6197,-4.6135,-4.6237,-4.6179,-4.6209,-4.622,-4.6224,-4.623,-4.6161,-4.6269,-4.6454,-4.6473,-4.6237,-4.6235,-4.6233,0,-4.5764,-4.5863,-4.5953,-4.5977,-4.6023,-4.6065,-4.6086,-4.6121,-4.6157,-4.6203,-4.6226,-4.628,-4.6309,-4.6351,-4.635,-4.6305,-4.6452,-4.6391,-4.6456,-4.6456,-4.6488,-4.6486,-4.6679,-4.6509,-4.6509,-4.6508,-4.6508,0,-4.5915,-4.5995,-4.6004,-4.606,-4.6148,-4.6145,-4.6232,-4.6248,-4.628,-4.6336,-4.6314,-4.6368,-4.6364,-4.6418,-4.6417,-4.6501,-4.6514,-4.6518,-4.6517,-4.652,-4.6519,-4.6538,-4.6529,-4.6513,-4.6512,-4.6511,-4.651,0,-4.6055,-4.6065,-4.6161,-4.6198,-4.6209,-4.6273,-4.6303,-4.6355,-4.6364,-4.6436,-4.6453,-4.6467,-4.6528,-4.6532,-4.6603,-4.6603,-4.6704,-4.6693,-4.6692,-4.6689,-4.6754,-4.6747,-4.6966,-4.6994,-4.6806,-4.6808,-4.681,0,-4.6151,-4.6212,-4.6256,-4.6293,-4.6317,-4.6378,-4.6414,-4.6412,-4.6451,-4.65,-4.6545,-4.6605,-4.6653,-4.6753,-4.6768,-4.6822,-4.6812,-4.6885,-4.682,-4.682,-4.6812,-4.6808,-4.6813,-4.6897,-4.6899,-4.6901,-4.6902,0,-4.6319,-4.6321,-4.6375,-4.6432,-4.6477,-4.652,-4.6561,-4.6593,-4.6596,-4.664,-4.6704,-4.6741,-4.6814,-4.6873,-4.6926,-4.6945,-4.6924,-4.6923,-4.694,-4.6943,-4.6939,-4.6941,-4.6725,-4.6917,-4.6916,-4.6915,-4.6914,-4.6913,-4.6439,-4.6492,-4.6531,-4.6592,-4.6623,-4.6662,-4.6712,-4.6729,-4.6783,-4.6843,-4.6838,-4.6909,-4.6945,-4.7013,-4.7037,-4.7091,-4.7066,-4.7092,-4.7098,-4.7104,-4.7111,-4.6932,-4.71,-4.71,-4.71,-4.7099,-4.7099,0,-4.6605,-4.6629,-4.6685,-4.6744,-4.6792,-4.677,-4.6814,-4.6855,-4.6918,-4.6954,-4.7002,-4.7075,-4.7132,-4.7153,-4.7208,-4.7247,-4.7238,-4.7262,-4.7258,-4.7263,-4.7131,-4.7109,-4.7267,-4.7267,-4.7267,-4.7267,-4.7267,-4.7267,-4.6697,-4.6785,-4.6791,-4.6894,-4.6917,-4.6987,-4.7014,-4.7049,-4.7078,-4.7161,-4.7209,-4.7223,-4.7252,-4.731,-4.7361,-4.7365,-4.7386,-4.7413,-4.7413,-4.7289,-4.7272,-4.7256,-4.7236,-4.7418,-4.7418,-4.754,-4.7541,-4.7542]}]]